STARLINK-3400, 51128

Orbit data source: Space-Track

STARLINK-3400, 51128 is a payload satellite owned by SpaceX/Seattle (US) in LEO that was launched on Wed, 19 Jan 2022 UTC via an FALCON 9 launch vehicle from the Air Force Eastern Test Range (AFETR). Payload-class satellites include a variety of spacecraft equipped with specific instruments for various scientific and technological missions. These include communications satellites like Starlink; space stations such as the ISS; scientific satellites like the Hubble; Earth observation satellites from companies like Planet Labs, Umbra, and HawkEye 360; GPS; miniature CubeSats for education and research; and military/defense satellites.

Loading next visibility...
Identifier
51128, 2022-005AA
Orbit
LEO
Country
Flag of USUS
Related business
Manufacturer
SpaceX/Seattle
Mission
Operational Commercial Communications
Bus & Motor
STARLINK, Unknown motor
Mass
297 kg wet, ~275 kg dry
Launch date (UTC)
2022-01-19 (4 years ago)
Launch vehicle
FALCON 9
Launch site
Air Force Eastern Test Range (AFETR)
Object type
Payload
Rocket body
Debris
Shape & HBR
Box + 1 Pan, 10.1 m
Radar Cross Section
13.562 m², Large (>1 m²)

Expand to show TLE details & history
Last TLE update: 2 days ago

TLE from 2 days ago
0 STARLINK-3400
1 51128U 22005AA  26171.34079356  .00000457  00000-0  46817-4 0  9996
2 51128  53.1589 198.1874 0000845  71.0789 289.0294 15.08838325244228
Epoch: 2026-06-20T08:10Z
TLE epoch observation values (Epoch: 2026-06-20T08:10:44.563Z)
Latitude
-0.00002°
Longitude
166.94489°
Altitude
540.449 km
Speed
7.593 km/s
True Right ascension
13h 12m 44s
True Declination
0° 00' 00"
Sunlit
Object was in daylight at epoch
Visualization orbit readout
Latitude
Unknown
Longitude
Unknown
Altitude
Unknown
Speed
Unknown
Apparent Right ascension
Unknown
Apparent Declination
Unknown
Sunlit
N/A
Visualization observer readout
Local Sidereal Time
21:52:20
Azimuth
Unknown
Elevation
Unknown
Doppler factor
Unknown
Orbital elements
Apogee altitude
540.587 km
Perigee altitude
539.418 km
Semi-major axis
6,918.14 km
Eccentricity
0.00008
Inclination
53.1589°
RAAN
198.1874°
Arg. of periapsis
71.0789°
True anomaly
289.02025°
Mean anomaly
289.0294°
Eccentric anomaly
289.02482°
Mean motion
3.77189 °/min
Orbital period
95.44 mins
BSTAR
0.000046817
Loading maneuver chart data...
Computing Atmospheric mass density...

Documentation

Showing up to 5 results
|